Simultaneous Nadir Overpasses (SNOs) Predictions

Prediction of SNOs between NPP and TERRA Satellite Orbit:

Table of predicted SNOs for the next 14.0 days since TLE Epoch: 11/26/2022
Index Date (NPP) Time (NPP) Lat,Lon (NPP) SZA (NPP ) Date (TERRA) Time (TERRA) Lat,Lon (TERRA) SZA (TERRA ) Distance(km) Time Diff (sec)
1 11/27/2022 14:54:14 -70.25, 132.70 88.67 11/27/2022 14:55:10 -70.25, 132.76 88.67 2.01 56
2 11/27/2022 15:44:58 70.13, -59.80 91.22 11/27/2022 15:44:33 70.14, -59.74 91.23 2.92 25
3 11/27/2022 16:35:22 -69.09, 109.03 89.82 11/27/2022 16:34:16 -69.13, 106.55 89.77 98.30 66
4 11/30/2022 03:48:08 -70.29, -60.83 88.19 11/30/2022 03:49:20 -70.29, -60.75 88.19 3.26 72
5 11/30/2022 04:38:51 70.13, 106.73 91.65 11/30/2022 04:38:44 70.13, 106.68 91.65 2.06 7
6 11/30/2022 05:29:27 -69.72, -85.34 88.75 11/30/2022 05:28:15 -69.78, -86.15 88.69 31.95 72
7 12/02/2022 16:42:13 -70.92, 104.69 87.16 12/02/2022 16:43:21 -70.81, 106.45 87.28 65.60 68
8 12/02/2022 17:32:45 70.18, -86.81 92.10 12/02/2022 17:32:54 70.15, -86.85 92.07 3.34 9
9 12/02/2022 18:23:27 -70.09, 80.64 87.99 12/02/2022 18:22:20 -70.08, 80.70 88.00 2.50 67
10 12/05/2022 06:26:39 70.24, 79.63 92.51 12/05/2022 06:27:03 70.22, 79.69 92.48 3.13 24
11 12/05/2022 07:17:20 -70.09,-112.83 87.64 12/05/2022 07:16:30 -70.09,-112.85 87.64 0.75 50
12 12/07/2022 19:20:31 70.25,-113.85 92.82 12/07/2022 19:21:11 70.27,-113.80 92.84 2.87 40
13 12/07/2022 20:11:13 -70.16, 53.61 87.28 12/07/2022 20:10:38 -70.14, 53.66 87.29 2.38 35



Historial Predications of SNOs between NPP and TERRA
